Simultaneous Nadir Overpasses (SNOs) Predictions

Prediction of SNOs between GOES-16 and AQUA Satellite Orbit:

Table of predicted SNOs for the next 14.0 days since TLE Epoch: 12/19/2020
Index Date Time (GOES-16) GOES-16 Lat,Lon AQUA Lat,Lon Distance(km) Time Diff (sec)
1 12/20/2020 18:23:03 0.00, -75.17 0.77, -71.69 396.55 80
2 12/21/2020 06:44:18 -0.01, -75.17 0.35, -76.84 189.67 80
3 12/23/2020 06:29:27 -0.01, -75.19 -0.28, -73.88 148.54 80
4 12/23/2020 18:50:52 0.01, -75.20 -0.81, -79.08 441.21 80
5 12/25/2020 06:17:16 0.00, -75.22 -0.90, -70.93 487.49 80
6 12/25/2020 18:38:41 -0.00, -75.23 -0.18, -76.13 102.07 80
7 12/27/2020 18:29:10 -0.01, -75.25 0.45, -73.17 237.26 80
8 12/28/2020 06:50:25 0.01, -75.26 0.66, -78.32 348.06 80
9 12/30/2020 06:38:14 0.01, -75.29 0.03, -75.37 8.65 80
10 01/01/2021 06:23:23 0.01, -75.33 -0.61, -72.41 331.12 80
11 01/01/2021 18:44:48 -0.01, -75.33 -0.46, -77.61 258.57 80
